^^
De Soto Valley Weather Station Historical Data
 
Daily Summary for January 28, 2020 Units:  English    Metric   Both
Daily Weekly Monthly Yearly Custom
  Current: High: Low: Average:
Temperature: 25.3 °F 26.4 °F 25.3 °F 25.7 °F
Dew Point: 24.1 °F 24.7 °F 23.9 °F 24.2 °F
Humidity: 95% 95% 93% 94%
Wind Speed: 1mph 4mph 0mph 1.6mph
Wind Gust: 2mph 6mph - -
WindSE - - South
Pressure: 30.02 in 30.02 in 30.02 in -
Precipitation: 0 in      
Historical Graphs
 
 
Tabular Data for January 28, 2020
Time Temperature Dew Point Pressure Wind Wind Speed Wind Gust Humidity Rainfall Rate (Hourly) solar
00:00 26.4 °F 24.7 °F 30.02 in South 2 mph 4 mph 93% 0 in 0.00 W/m2
00:05 26.3 °F 24.6 °F 30.02 in South 2 mph 4 mph 93% 0 in 0.00 W/m2
00:10 26.3 °F 24.6 °F 30.02 in SSE 2 mph 4 mph 93% 0 in 0.00 W/m2
00:15 26.2 °F 24.5 °F 30.02 in South 2 mph 4 mph 93% 0 in 0.00 W/m2
00:20 26.2 °F 24.5 °F 30.02 in SSW 1 mph 4 mph 93% 0 in 0.00 W/m2
00:25 26.1 °F 24.4 °F 30.02 in South 1 mph 4 mph 93% 0 in 0.00 W/m2
00:30 26.1 °F 24.4 °F 30.02 in South 1 mph 3 mph 93% 0 in 0.00 W/m2
00:35 26.1 °F 24.4 °F 30.02 in South 2 mph 5 mph 93% 0 in 0.00 W/m2
00:40 26 °F 24.3 °F 30.02 in South 4 mph 3.5 mph 93% 0 in 0.00 W/m2
00:45 26 °F 24.3 °F 30.02 in South 2 mph 5 mph 93% 0 in 0.00 W/m2
00:50 25.9 °F 24.2 °F 30.02 in South 3 mph 4 mph 93% 0 in 0.00 W/m2
00:55 25.8 °F 24.1 °F 30.02 in SSE 1 mph 3 mph 93% 0 in 0.00 W/m2
01:00 25.8 °F 24.1 °F 30.02 in Calm   4 mph 93% 0 in 0.00 W/m2
01:05 25.8 °F 24.1 °F 30.02 in SSE 3 mph 6 mph 93% 0 in 0.00 W/m2
01:10 25.7 °F 24.2 °F 30.02 in SSE 2 mph 6 mph 94% 0 in 0.00 W/m2
01:15 25.6 °F 24.1 °F 30.02 in SSE 1 mph 4 mph 94% 0 in 0.00 W/m2
01:20 25.6 °F 24.1 °F 30.02 in SSE 2 mph 4 mph 94% 0 in 0.00 W/m2
01:25 25.5 °F 24 °F 30.02 in SSE 2 mph 4 mph 94% 0 in 0.00 W/m2
01:30 25.5 °F 24 °F 30.02 in South 2 mph 5 mph 94% 0 in 0.00 W/m2
01:35 25.4 °F 23.9 °F 30.02 in South 2 mph 3 mph 94% 0 in 0.00 W/m2
01:40 25.4 °F 23.9 °F 30.02 in South 1 mph 3 mph 94% 0 in 0.00 W/m2
01:45 25.5 °F 24 °F 30.02 in South 2 mph 3 mph 94% 0 in 0.00 W/m2
01:50 25.5 °F 24 °F 30.02 in Calm   3 mph 94% 0 in 0.00 W/m2
01:55 25.4 °F 23.9 °F 30.02 in Calm   3 mph 94% 0 in 0.00 W/m2
02:00 25.5 °F 24.3 °F 30.02 in SSW 1 mph 4 mph 95% 0 in 0.00 W/m2
02:05 25.5 °F 24 °F 30.02 in South 1 mph 4 mph 94% 0 in 0.00 W/m2
02:10 25.4 °F 23.9 °F 30.02 in South 2 mph 4 mph 94% 0 in 0.00 W/m2
02:15 25.3 °F 24.1 °F 30.02 in South 1 mph 3 mph 95% 0 in 0.00 W/m2
02:20 25.3 °F 24.1 °F 30.02 in SE 1 mph 3 mph 95% 0 in 0.00 W/m2
02:25 25.3 °F 24.1 °F 30.02 in SE 1 mph 2 mph 95% 0 in 0.00 W/m2
De Soto, Wisconsin, USA
Compliments of Weather Underground - 1.75 mb